• In Österreich
  • Länderverzeichnis
  • Für 7 Tage
  • Wassertemperatur
  • Satellitenkarten
  • Wetterkarte
  • News
  • Widgets
  • user-avatar
    Anmelden

    Stündliche Wetter Chipata

    Heute, 21 Juni, Donnerstag

    Zeit Temperatur Niederschläge Wind Luftdruck Luftfeuchtigkeit
    00:00 +17°C° 0 mm 2 m/S 681 mmHg 69%
    01:00 +17°C° 0 mm 2 m/S 681 mmHg 71%
    02:00 +16°C° 0 mm 1 m/S 681 mmHg 72%
    03:00 +16°C° 0 mm 1 m/S 681 mmHg 73%
    04:00 +16°C° 0 mm 1 m/S 681 mmHg 74%
    05:00 +16°C° 0 mm 1 m/S 681 mmHg 75%
    06:00 +17°C° 0 mm 2 m/S 682 mmHg 69%
    07:00 +19°C° 0 mm 2 m/S 682 mmHg 63%
    08:00 +21°C° 0 mm 2 m/S 683 mmHg 55%
    09:00 +24°C° 0 mm 2 m/S 684 mmHg 49%
    10:00 +26°C° 0 mm 3 m/S 684 mmHg 43%
    11:00 +28°C° 0 mm 3 m/S 684 mmHg 37%
    12:00 +28°C° 0 mm 3 m/S 684 mmHg 36%
    13:00 +29°C° 0 mm 2 m/S 683 mmHg 34%
    14:00 +29°C° 0 mm 2 m/S 683 mmHg 32%
    15:00 +28°C° 0 mm 2 m/S 682 mmHg 35%
    16:00 +27°C° 0 mm 2 m/S 682 mmHg 38%
    17:00 +26°C° 0 mm 2 m/S 682 mmHg 42%
    18:00 +25°C° 0 mm 2 m/S 682 mmHg 45%
    19:00 +24°C° 0 mm 2 m/S 682 mmHg 49%
    20:00 +21°C° 0 mm 3 m/S 682 mmHg 53%
    21:00 +20°C° 0 mm 2 m/S 682 mmHg 57%
    22:00 +20°C° 0 mm 2 m/S 682 mmHg 60%
    23:00 +19°C° 0 mm 2 m/S 682 mmHg 64%

    Morgen, 22 Juni, Freitag

    Zeit Temperatur Niederschläge Wind Luftdruck Luftfeuchtigkeit
    00:00 +18°C° 0 mm 2 m/S 682 mmHg 67%
    01:00 +18°C° 0 mm 2 m/S 682 mmHg 69%
    02:00 +17°C° 0 mm 2 m/S 682 mmHg 71%
    03:00 +17°C° 0 mm 2 m/S 682 mmHg 73%
    04:00 +16°C° 0 mm 2 m/S 681 mmHg 76%
    05:00 +16°C° 0 mm 2 m/S 681 mmHg 78%
    06:00 +17°C° 0 mm 2 m/S 682 mmHg 74%
    07:00 +19°C° 0 mm 2 m/S 682 mmHg 70%
    08:00 +20°C° 0 mm 3 m/S 683 mmHg 65%
    09:00 +22°C° 0 mm 3 m/S 683 mmHg 57%
    10:00 +25°C° 0 mm 3 m/S 684 mmHg 49%
    11:00 +28°C° 0 mm 3 m/S 684 mmHg 41%
    12:00 +28°C° 0 mm 2 m/S 683 mmHg 39%
    13:00 +29°C° 0 mm 2 m/S 683 mmHg 37%
    14:00 +29°C° 0 mm 2 m/S 682 mmHg 34%
    15:00 +28°C° 0 mm 2 m/S 682 mmHg 38%
    16:00 +27°C° 0 mm 2 m/S 681 mmHg 41%
    17:00 +26°C° 0 mm 2 m/S 681 mmHg 45%
    18:00 +24°C° 0 mm 2 m/S 681 mmHg 50%
    19:00 +22°C° 0 mm 3 m/S 681 mmHg 55%
    20:00 +20°C° 0 mm 3 m/S 681 mmHg 61%
    21:00 +20°C° 0 mm 3 m/S 681 mmHg 63%
    22:00 +19°C° 0 mm 2 m/S 681 mmHg 65%
    23:00 +18°C° 0 mm 2 m/S 681 mmHg 68%

    übermorgen, 23 Juni, Samstag

    Zeit Temperatur Niederschläge Wind Luftdruck Luftfeuchtigkeit
    00:00 +18°C° 0 mm 2 m/S 681 mmHg 70%
    01:00 +17°C° 0 mm 2 m/S 681 mmHg 72%
    02:00 +17°C° 0 mm 2 m/S 681 mmHg 74%
    03:00 +16°C° 0 mm 2 m/S 681 mmHg 76%
    04:00 +16°C° 0 mm 2 m/S 681 mmHg 79%
    05:00 +15°C° 0 mm 2 m/S 681 mmHg 81%
    06:00 +17°C° 0 mm 2 m/S 681 mmHg 76%
    07:00 +18°C° 0 mm 2 m/S 682 mmHg 71%
    08:00 +19°C° 0 mm 2 m/S 682 mmHg 66%
    09:00 +21°C° 0 mm 2 m/S 683 mmHg 56%
    10:00 +25°C° 0 mm 2 m/S 683 mmHg 46%
    11:00 +27°C° 0 mm 2 m/S 683 mmHg 36%
    12:00 +28°C° 0 mm 2 m/S 683 mmHg 35%
    13:00 +28°C° 0 mm 2 m/S 682 mmHg 33%
    14:00 +29°C° 0 mm 2 m/S 681 mmHg 31%
    15:00 +28°C° 0 mm 2 m/S 681 mmHg 35%
    16:00 +27°C° 0 mm 2 m/S 680 mmHg 39%
    17:00 +25°C° 0 mm 2 m/S 680 mmHg 43%
    18:00 +24°C° 0 mm 2 m/S 680 mmHg 47%
    19:00 +21°C° 0 mm 3 m/S 680 mmHg 52%
    20:00 +20°C° 0 mm 3 m/S 680 mmHg 56%
    21:00 +19°C° 0 mm 2 m/S 680 mmHg 58%
    22:00 +18°C° 0 mm 2 m/S 680 mmHg 59%
    23:00 +17°C° 0 mm 2 m/S 681 mmHg 60%

    24 Juni, Sonntag

    Zeit Temperatur Niederschläge Wind Luftdruck Luftfeuchtigkeit
    00:00 +17°C° 0 mm 2 m/S 680 mmHg 61%
    01:00 +17°C° 0 mm 2 m/S 680 mmHg 63%
    02:00 +16°C° 0 mm 2 m/S 680 mmHg 64%
    03:00 +16°C° 0 mm 2 m/S 680 mmHg 66%
    04:00 +15°C° 0 mm 2 m/S 680 mmHg 67%
    05:00 +15°C° 0 mm 1 m/S 680 mmHg 69%
    06:00 +16°C° 0 mm 2 m/S 680 mmHg 66%
    07:00 +17°C° 0 mm 2 m/S 681 mmHg 62%
    08:00 +19°C° 0 mm 2 m/S 682 mmHg 58%
    09:00 +21°C° 0 mm 2 m/S 682 mmHg 51%
    10:00 +25°C° 0 mm 2 m/S 683 mmHg 44%
    11:00 +28°C° 0 mm 2 m/S 683 mmHg 37%
    12:00 +28°C° 0 mm 2 m/S 682 mmHg 35%
    13:00 +29°C° 0 mm 2 m/S 682 mmHg 33%
    14:00 +30°C° 0 mm 2 m/S 681 mmHg 30%
    15:00 +28°C° 0 mm 2 m/S 681 mmHg 34%
    16:00 +27°C° 0 mm 2 m/S 680 mmHg 38%
    17:00 +25°C° 0 mm 2 m/S 680 mmHg 42%
    18:00 +24°C° 0 mm 2 m/S 680 mmHg 49%
    19:00 +21°C° 0 mm 2 m/S 681 mmHg 56%
    20:00 +20°C° 0 mm 2 m/S 681 mmHg 63%
    21:00 +19°C° 0 mm 2 m/S 681 mmHg 64%
    22:00 +19°C° 0 mm 2 m/S 681 mmHg 65%
    23:00 +18°C° 0 mm 2 m/S 681 mmHg 67%

    25 Juni, Montag

    Zeit Temperatur Niederschläge Wind Luftdruck Luftfeuchtigkeit
    00:00 +18°C° 0 mm 2 m/S 681 mmHg 68%
    01:00 +17°C° 0 mm 2 m/S 680 mmHg 70%
    02:00 +17°C° 0 mm 2 m/S 680 mmHg 71%
    03:00 +16°C° 0 mm 2 m/S 680 mmHg 72%
    04:00 +16°C° 0 mm 2 m/S 680 mmHg 74%
    05:00 +16°C° 0 mm 1 m/S 680 mmHg 75%
    06:00 +17°C° 0 mm 2 m/S 681 mmHg 70%
    07:00 +18°C° 0 mm 2 m/S 681 mmHg 66%
    08:00 +19°C° 0 mm 2 m/S 682 mmHg 61%
    09:00 +21°C° 0 mm 2 m/S 682 mmHg 54%
    10:00 +24°C° 0 mm 2 m/S 682 mmHg 47%
    11:00 +27°C° 0 mm 2 m/S 683 mmHg 40%
    12:00 +27°C° 0 mm 2 m/S 682 mmHg 39%
    13:00 +27°C° 0 mm 1 m/S 681 mmHg 38%
    14:00 +27°C° 0 mm 1 m/S 680 mmHg 37%
    15:00 +26°C° 0 mm 1 m/S 680 mmHg 40%
    16:00 +26°C° 0 mm 1 m/S 680 mmHg 42%
    17:00 +25°C° 0 mm 2 m/S 680 mmHg 45%
    18:00 +24°C° 0 mm 2 m/S 680 mmHg 48%
    19:00 +23°C° 0 mm 2 m/S 681 mmHg 52%
    20:00 +21°C° 0 mm 3 m/S 681 mmHg 55%
    21:00 +20°C° 0 mm 2 m/S 681 mmHg 59%
    22:00 +19°C° 0 mm 2 m/S 681 mmHg 64%
    23:00 +18°C° 0 mm 2 m/S 681 mmHg 68%

    26 Juni, Dienstag

    Zeit Temperatur Niederschläge Wind Luftdruck Luftfeuchtigkeit
    00:00 +18°C° 0 mm 2 m/S 681 mmHg 69%
    01:00 +17°C° 0 mm 2 m/S 680 mmHg 70%
    02:00 +17°C° 0 mm 2 m/S 680 mmHg 71%
    03:00 +17°C° 0 mm 2 m/S 680 mmHg 71%
    04:00 +16°C° 0 mm 2 m/S 680 mmHg 71%
    05:00 +16°C° 0 mm 2 m/S 681 mmHg 71%
    06:00 +17°C° 0 mm 2 m/S 681 mmHg 67%
    07:00 +18°C° 0 mm 2 m/S 682 mmHg 63%
    08:00 +19°C° 0 mm 3 m/S 682 mmHg 59%
    09:00 +22°C° 0 mm 3 m/S 683 mmHg 52%
    10:00 +25°C° 0 mm 3 m/S 683 mmHg 44%
    11:00 +27°C° 0 mm 3 m/S 683 mmHg 37%
    12:00 +27°C° 0 mm 2 m/S 682 mmHg 37%
    13:00 +27°C° 0 mm 2 m/S 681 mmHg 37%
    14:00 +27°C° 0 mm 2 m/S 681 mmHg 38%
    15:00 +26°C° 0 mm 2 m/S 680 mmHg 40%
    16:00 +25°C° 0 mm 2 m/S 680 mmHg 42%
    17:00 +25°C° 0 mm 2 m/S 680 mmHg 45%
    18:00 +24°C° 0 mm 2 m/S 681 mmHg 49%
    19:00 +21°C° 0 mm 2 m/S 681 mmHg 54%
    20:00 +20°C° 0 mm 2 m/S 681 mmHg 59%
    21:00 +19°C° 0 mm 2 m/S 681 mmHg 61%
    22:00 +19°C° 0 mm 2 m/S 681 mmHg 63%
    23:00 +18°C° 0 mm 2 m/S 681 mmHg 66%
    Mehr zeigen